TIANWANG 1B (TW-1B)
1 40927U 15051C   19066.52318279  .00009680  00000-0  16213-3 0  9992
2 40927  97.1533 112.4701 0010296  55.9725  50.6545 15.52003059194008
TIANWANG 1A (TW-1A)
1 40928U 15051D   19066.33277955  .00003178  00000-0  81196-4 0  9996
2 40928  97.1583  99.9004 0013578  90.0372 325.4221 15.40106763193267
LAPAN A2
1 40931U 15052B   19065.33220913  .00000667  00000-0  39171-5 0  9999
2 40931   5.9999  80.6813 0012908 119.7905 240.3507 14.76598923185816
LQSAT
1 40958U 15057A   19066.45168288 -.00000001  00000-0  75189-5 0  9995
2 40958  97.9100 138.3831 0017366 208.2909 151.7358 14.73068505183601
CHUBUSAT 2
1 41338U 16012B   19065.42526195  .00000313  00000-0  17680-4 0  9997
2 41338  31.0033  87.3713 0013816 150.5305 209.6111 15.00102313167244
CHUBUSAT 3
1 41339U 16012C   19066.47156019  .00000332  00000-0  19024-4 0  9993
2 41339  31.0100  78.9533 0013352 168.3753 191.7190 15.00281581167394
OUFTI-1
1 41458U 16025C   19066.31217532  .00000694  00000-0  39969-4 0  9991
2 41458  98.1067 147.9178 0167102 345.0523  14.5797 15.05457604157026
E-STAR-2
1 41459U 16025D   19066.43794331  .00001293  00000-0  70673-4 0  9995
2 41459  98.1063 147.7693 0168504 345.6497  13.9982 15.05130222157018
AAUSAT 4
1 41460U 16025E   19066.33829353  .00001840  00000-0  97000-4 0  9990
2 41460  98.1007 148.6644 0158585 339.7632  19.7316 15.06875648157101
NUSAT 1
1 41557U 16033B   19066.51154899  .00001263  00000-0  50485-4 0  9997
2 41557  97.4207 154.6283 0012545 306.3877  53.6204 15.26923228154340
BEESAT 4
1 41619U 16040W   19066.16402403  .00001234  00000-0  55650-4 0  9999
2 41619  97.3806 130.2657 0012220  35.1489 325.0551 15.22823029138105
PRATHAM
1 41783U 16059A   19065.64023438 +.00000038 +00000-0 +16662-4 0  9991
2 41783 098.0816 127.4483 0033300 353.5116 006.5650 14.62975830130336
ALSAT 1N
1 41789U 16059G   19066.40079926  .00000055  00000-0  19530-4 0  9991
2 41789  98.0839 129.9673 0027545 342.2979  17.7266 14.64220150130530
NAYIF 1
1 42017U 17008BX  19065.65551623  .00001475  00000-0  61610-4 0  9999
2 42017  97.4150 133.7807 0006746 162.2271 197.9204 15.25196683114065
LILACSAT-1
1 42725U 98067ME  19066.53477322  .00260304  40020-4  46498-3 0  9994
2 42725  51.6298  74.7014 0005020  75.8070  66.7402 16.01245954102140
MAX VALIER SAT
1 42778U 17036P   19066.17096957  .00000815  00000-0  38891-4 0  9998
2 42778  97.3682 126.0548 0011398 221.6345 138.4025 15.21799695 94499
